Regional Weather Roundup
Issued by NWS Albany, NY

Home | Current Version | Previous Version | Graphics & Text | Print | Product List | Glossary Off
Versions: 1 2 3 4 5 6 7 8 9 10 11 12 13 14 15 16 17 18 19 20 21 22 23 24 25 26 27 28 29 30 31 32 33 34 35 36 37 38 39 40 41 42 43 44 45 46 47 48 49 50

946
ASUS41 KALY 231210
RWRALY

NEW YORK STATE HOURLY WEATHER ROUNDUP
NATIONAL WEATHER SERVICE ALBANY NY
800 AM EDT MON APR 23 2018

NOTE: "FAIR" INDICATES FEW OR NO CLOUDS BELOW 12,000 FEET WITH NO
SIGNIFICANT WEATHER AND/OR NO OBSTRUCTIONS TO VISIBILITY.

NYZ032-033-038>043-046>054-057>066-NYZ062>081-082-084-231300-
EAST


CITY           SKY/WX    TMP DP  RH WIND       PRES   REMARKS
ALBANY         FAIR      41  26  55 CALM      30.51R
GLENS FALLS    FAIR      40  25  55 N3        30.51R
POUGHKEEPSIE   FAIR      38  28  67 CALM      30.49R
NEWBURGH       SUNNY     43  28  56 VRB6      30.49R
MONTGOMERY     FAIR      41  29  62 N5        30.47S HAZE
WHITE PLAINS   FAIR      50  19  29 E9        30.46R
ISLIP          FAIR      49  34  56 N8        30.47R
NEW YORK CITY  FAIR      49  30  48 NE8       30.47R
CENTRAL PARK   FAIR      51  25  36 NE5       30.49R
$$

NYZ005>009-017-018-044>046-055-056-231300-
CENTRAL


CITY           SKY/WX    TMP DP  RH WIND       PRES   REMARKS
FULTON         FAIR      40  25  55 VRB5      30.46R
SYRACUSE       FAIR      35  29  78 CALM      30.47R
ROME           FAIR      34  24  67 CALM      30.49R
ELMIRA         FAIR      34  27  75 CALM      30.45S
BINGHAMTON     FAIR      38  21  50 E3        30.42S
MONTICELLO       N/A     42  22  44 E5        30.46
$$

NYZ026>034-041>043-087-231300-
NORTH


CITY           SKY/WX    TMP DP  RH WIND       PRES   REMARKS
WATERTOWN      FAIR      38  30  73 E3        30.46R
FORT DRUM      NOT AVBL
OGDENSBURG     FAIR      41  29  61 CALM      30.47S
MASSENA        FAIR      38  31  76 CALM      30.49R
SARANAC LAKE   FAIR      31  25  78 CALM      30.46R
PLATTSBURGH    FAIR      38  28  67 SE6       30.49R WCI  33
$$

NYZ001>004-010>016-019>021-085-231300-
WEST


CITY           SKY/WX    TMP DP  RH WIND       PRES   REMARKS
NIAGARA FALLS  FAIR      46  26  45 E3        30.39R
BUFFALO        FAIR      47  21  35 SE10      30.39S
DUNKIRK        FAIR      51  22  31 SE21G31   30.36R
JAMESTOWN      FAIR      46  21  37 SE7       30.38R
WELLSVILLE     FAIR      45  19  35 SE7       30.41R
ROCHESTER      FAIR      41  32  70 CALM      30.43R
PENN YAN       FAIR      37  25  61 SW10      30.44R WCI  30
$$

             KEY
       WCI = WIND CHILL INDEX
       VSB = VISIBILITY
       HX  = HEAT INDEX
$$




USA.gov is the U.S. government's official web portal to all federal, state and local government web resources and services.